SL-14 DEB, 45357

Orbit data source: Space-Track

SL-14 DEB, 45357 is space debris in LEO originally from a launch on Thu, 15 Aug 1991 UTC launched from the Plesetsk Missile And Space Complex (PKMTR). Debris objects in space refer to the collection of defunct objects orbiting the Earth. Examples of debris include non-operational satellites, rocket bodies, and fragments generated from explosions, collisions, or faulty payload assembly.

Loading next visibility...
Identifier
45357, 1991-056CR
Orbit
LEO
Country
Flag of CISCIS
Related business
Manufacturer
Unknown
Mission
Spacecraft
Bus & Motor
Unknown
Mass
Unknown
Launch date (UTC)
1991-08-15 (35 years ago)
Launch vehicle
Unknown
Launch site
Plesetsk Missile And Space Complex (PKMTR)
Object type
Payload
Rocket body
Debris
Shape & HBR
Unknown shape, 0.1 m
Radar Cross Section
Small (<0.1 m²)

Expand to show TLE details & history
Last TLE update: 11 hours ago

TLE from 11 hours ago
0 SL-14 DEB
1 45357U 91056CR  26249.38796986  .00000437  00000-0  79896-3 0  9990
2 45357  82.5668  33.3122 0072268  54.7976 305.9896 13.37395991317111
Epoch: 2026-09-06T09:18Z
TLE epoch observation values (Epoch: 2026-09-06T09:18:40.595Z)
Latitude
-0.00008°
Longitude
-91.84076°
Altitude
1,090.246 km
Speed
7.322 km/s
True Right ascension
02h 13m 14s
True Declination
0° 00' 00"
Sunlit
Object was in full shadow at epoch
Visualization orbit readout
Latitude
Unknown
Longitude
Unknown
Altitude
Unknown
Speed
Unknown
Apparent Right ascension
Unknown
Apparent Declination
Unknown
Sunlit
N/A
Visualization observer readout
Local Sidereal Time
12:48:48
Azimuth
Unknown
Elevation
Unknown
Doppler factor
Unknown
Orbital elements
Apogee altitude
1,170.371 km
Perigee altitude
1,062.05 km
Semi-major axis
7,494.348 km
Eccentricity
0.00723
Inclination
82.5668°
RAAN
33.3122°
Arg. of periapsis
54.7976°
True anomaly
305.31598°
Mean anomaly
305.9896°
Eccentric anomaly
305.65315°
Mean motion
3.34536 °/min
Orbital period
107.61 mins
BSTAR
0.00079896
Loading maneuver chart data...
Computing Atmospheric mass density...
Loading historical data...
Loading historical data...
Loading historical data...
Loading historical data...
Loading historical data...
Loading historical data...
Loading historical data...

Documentation

Showing up to 5 results
|